Weather History for KSUT - March, 2013

Change the Weather History Date:

Saturday, March 16, 2013

  Actual Average (KILM) Record (KILM)
Temperature  
Mean Temperature 56 °F 55 °F  
Max Temperature 61 °F 66 °F 85 °F (1977)
Min Temperature 52 °F 44 °F 22 °F (1890)
Degree Days  
Heating Degree Days 8 10  
Month to date heating degree days 195  
Since 1 July heating degree days 2124  
Cooling Degree Days 0 1  
Month to date cooling degree days 1  
Year to date cooling degree days 6  
Growing Degree Days 6 (Base 50)    
Moisture  
Dew Point 47 °F    
Average Humidity 72    
Maximum Humidity 85    
Minimum Humidity 57    
Precipitation  
Precipitation 0.00 in 0.14 in 1.45 in (2009)
Month to date precipitation 2.25  
Year to date precipitation 9.63  
Snow  
Snow 0.00 in 0.00 in - ()
Month to date snowfall 0.1  
Since 1 July snowfall 1.6  
Snow Depth -    
Sea Level Pressure  
Sea Level Pressure 29.90 in    
Wind  
Wind Speed 13 mph (SW)    
Max Wind Speed 20 mph    
Max Gust Speed 26 mph    
Visibility 10 miles    
Events      
T = Trace of Precipitation, MM = Missing Value Source: NWS Daily Summary

Daily Weather History Graph

Daily Weather History Graph

Search for Another Location

Airport or City:

Trip Planner

Search our weather history database for the weather conditions in past years. The results will help you decide how hot, cold, wet, or windy it might be!

Date:

Astronomy

Mar. 16, 2013 Rise Set
Actual Time 7:21 AM EDT 7:21 PM EDT
Civil Twilight 6:56 AM EDT 7:45 PM EDT
Nautical Twilight 6:27 AM EDT 8:15 PM EDT
Astronomical Twilight 5:58 AM EDT 8:44 PM EDT
Moon 10:03 AM EDT (3/16) No Moon Set
Length of Visible Light 12h 49m
Length of Day
11h 59m
Waxing Crescent, 23% of the Moon is Illuminated
Mar 16
Waxing Crescent
Mar 19
First Quarter
Mar 27
Full
Apr 3
Last Quarter
Apr 10
New

Hourly Weather History & Observations

Time (EDT) Temp. Dew Point Humidity Pressure Visibility Wind Dir Wind Speed Gust Speed Precip Events Conditions
12:15 AM 52.3 °F 44.8 °F 75% 30.02 in 10.0 mi WSW 12.7 mph - N/A   Clear
12:35 AM 52.3 °F 45.1 °F 76% 30.01 in 10.0 mi SW 12.7 mph - N/A   Clear
12:55 AM 52.7 °F 45.5 °F 76% 30.00 in 10.0 mi SW 11.5 mph 17.3 mph N/A   Clear
1:15 AM 52.3 °F 45.9 °F 79% 30.00 in 10.0 mi SW 10.4 mph - N/A   Clear
1:35 AM 52.7 °F 46.0 °F 78% 30.00 in 10.0 mi WSW 11.5 mph 17.3 mph N/A   Clear
1:55 AM 53.2 °F 45.9 °F 76% 29.99 in 10.0 mi WSW 12.7 mph 18.4 mph N/A   Clear
2:15 AM 53.6 °F 46.4 °F 77% 29.98 in 10.0 mi WSW 13.8 mph 20.7 mph N/A   Clear
2:35 AM 53.2 °F 46.8 °F 79% 29.98 in 10.0 mi SW 13.8 mph 19.6 mph N/A   Clear
2:55 AM 53.2 °F 46.8 °F 79% 29.97 in 10.0 mi SW 12.7 mph 20.7 mph N/A   Clear
3:15 AM 53.2 °F 47.3 °F 80% 29.96 in 10.0 mi WSW 15.0 mph 21.9 mph N/A   Clear
3:35 AM 53.1 °F 47.5 °F 81% 29.95 in 10.0 mi SW 13.8 mph 18.4 mph N/A   Clear
3:55 AM 52.9 °F 47.3 °F 81% 29.94 in 10.0 mi SW 13.8 mph 21.9 mph N/A   Clear
4:15 AM 52.7 °F 47.3 °F 82% 29.94 in 10.0 mi SW 15.0 mph 20.7 mph N/A   Clear
4:35 AM 52.7 °F 47.3 °F 82% 29.93 in 10.0 mi SW 13.8 mph 18.4 mph N/A   Clear
4:55 AM 52.7 °F 47.5 °F 82% 29.93 in 10.0 mi SW 15.0 mph 19.6 mph N/A   Clear
5:15 AM 52.7 °F 47.3 °F 82% 29.94 in 10.0 mi WSW 15.0 mph 19.6 mph N/A   Clear
5:35 AM 52.5 °F 47.3 °F 82% 29.94 in 10.0 mi WSW 12.7 mph 17.3 mph N/A   Clear
5:55 AM 52.3 °F 47.1 °F 82% 29.94 in 10.0 mi WSW 9.2 mph - N/A   Clear
6:15 AM 52.3 °F 46.8 °F 81% 29.94 in 10.0 mi WSW 9.2 mph - N/A   Clear
6:35 AM 52.7 °F 46.4 °F 79% 29.94 in 10.0 mi WSW 11.5 mph 18.4 mph N/A   Clear
6:55 AM 52.7 °F 46.4 °F 79% 29.94 in 10.0 mi WSW 10.4 mph - N/A   Clear
7:15 AM 52.7 °F 46.0 °F 78% 29.94 in 10.0 mi WSW 9.2 mph - N/A   Clear
7:35 AM 52.5 °F 46.4 °F 80% 29.95 in 10.0 mi WSW 10.4 mph - N/A   Clear
7:55 AM 52.7 °F 45.9 °F 78% 29.95 in 10.0 mi WSW 11.5 mph - N/A   Clear
8:15 AM 53.2 °F 45.5 °F 75% 29.94 in 10.0 mi WSW 10.4 mph - N/A   Clear
8:35 AM 53.8 °F 45.3 °F 73% 29.94 in 10.0 mi WSW 11.5 mph 18.4 mph N/A   Clear
8:55 AM 54.5 °F 45.0 °F 70% 29.94 in 10.0 mi WSW 12.7 mph 17.3 mph N/A   Clear
9:15 AM 55.8 °F 44.8 °F 67% 29.94 in 10.0 mi WSW 11.5 mph 16.1 mph N/A   Clear
9:35 AM 56.8 °F 45.5 °F 66% 29.95 in 10.0 mi WSW 12.7 mph - N/A   Clear
9:55 AM 57.6 °F 45.1 °F 63% 29.94 in 10.0 mi WSW 12.7 mph 19.6 mph N/A   Clear
10:15 AM 58.1 °F 45.5 °F 63% 29.94 in 10.0 mi WSW 11.5 mph 19.6 mph N/A   Clear
10:35 AM 59.2 °F 45.7 °F 61% 29.93 in 10.0 mi WSW 11.5 mph - N/A   Clear
10:55 AM 59.9 °F 45.7 °F 59% 29.93 in 10.0 mi WSW 10.4 mph 19.6 mph N/A   Clear
11:15 AM 60.8 °F 45.3 °F 57% 29.92 in 10.0 mi WSW 11.5 mph 21.9 mph N/A   Clear
11:35 AM 60.4 °F 45.7 °F 58% 29.92 in 10.0 mi SW 13.8 mph 20.7 mph N/A   Clear
11:55 AM 61.3 °F 46.0 °F 57% 29.91 in 10.0 mi SW 15.0 mph - N/A   Clear
12:15 PM 60.3 °F 47.1 °F 62% 29.91 in 10.0 mi SW 12.7 mph 19.6 mph N/A   Clear
12:35 PM 60.8 °F 47.7 °F 62% 29.90 in 10.0 mi SW 11.5 mph 17.3 mph N/A   Clear
12:55 PM 59.7 °F 47.7 °F 64% 29.90 in 10.0 mi SW 12.7 mph 20.7 mph N/A   Clear
1:15 PM 59.9 °F 48.2 °F 65% 29.89 in 10.0 mi SW 15.0 mph 20.7 mph N/A   Clear
1:35 PM 59.9 °F 48.4 °F 66% 29.88 in 10.0 mi SW 15.0 mph 19.6 mph N/A   Clear
1:55 PM 60.4 °F 48.4 °F 64% 29.87 in 10.0 mi WSW 13.8 mph 18.4 mph N/A   Clear
2:15 PM 60.4 °F 48.6 °F 65% 29.86 in 10.0 mi SW 12.7 mph 20.7 mph N/A   Clear
2:35 PM 59.7 °F 48.4 °F 66% 29.85 in 10.0 mi SW 12.7 mph 24.2 mph N/A   Clear
2:55 PM 59.9 °F 48.4 °F 66% 29.83 in 10.0 mi SW 15.0 mph 24.2 mph N/A   Clear
3:15 PM 59.9 °F 48.2 °F 65% 29.83 in 10.0 mi SW 17.3 mph 23.0 mph N/A   Clear
3:35 PM 59.9 °F 48.2 °F 65% 29.82 in 10.0 mi SW 17.3 mph 24.2 mph N/A   Clear
3:55 PM 59.0 °F 48.2 °F 67% 29.82 in 10.0 mi SW 13.8 mph 23.0 mph N/A   Clear
4:15 PM 59.2 °F 48.2 °F 67% 29.82 in 10.0 mi SW 15.0 mph 26.5 mph N/A   Clear
4:35 PM 59.2 °F 48.2 °F 67% 29.82 in 10.0 mi SW 17.3 mph 21.9 mph N/A   Clear
4:55 PM 59.0 °F 48.2 °F 67% 29.82 in 10.0 mi SW 13.8 mph 23.0 mph N/A   Clear
5:15 PM 59.0 °F 48.2 °F 67% 29.82 in 10.0 mi SW 15.0 mph 26.5 mph N/A   Clear
5:35 PM 59.0 °F 48.2 °F 67% 29.82 in 10.0 mi SW 13.8 mph 23.0 mph N/A   Clear
5:55 PM 58.6 °F 48.2 °F 68% 29.82 in 10.0 mi SW 15.0 mph 23.0 mph N/A   Clear
6:15 PM 58.5 °F 47.7 °F 67% 29.82 in 10.0 mi SW 16.1 mph 21.9 mph N/A   Clear
6:35 PM 58.1 °F 47.8 °F 69% 29.81 in 10.0 mi SW 17.3 mph 23.0 mph N/A   Clear
6:55 PM 57.6 °F 47.7 °F 70% 29.81 in 10.0 mi SW 16.1 mph 25.3 mph N/A   Clear
7:15 PM 57.2 °F 47.7 °F 70% 29.81 in 10.0 mi SW 17.3 mph 25.3 mph N/A   Clear
7:35 PM 57.2 °F 47.7 °F 70% 29.82 in 10.0 mi SW 17.3 mph 26.5 mph N/A   Clear
7:55 PM 57.2 °F 47.7 °F 70% 29.82 in 10.0 mi WSW 18.4 mph 26.5 mph N/A   Clear
8:15 PM 57.2 °F 47.7 °F 70% 29.83 in 10.0 mi WSW 13.8 mph 24.2 mph N/A   Clear
8:35 PM 56.7 °F 47.8 °F 72% 29.85 in 10.0 mi West 12.7 mph 19.6 mph N/A   Clear
8:55 PM 56.3 °F 48.2 °F 74% 29.85 in 10.0 mi WSW 12.7 mph - N/A   Clear
9:15 PM 55.8 °F 48.2 °F 76% 29.86 in 7.0 mi WSW 19.6 mph 23.0 mph N/A   Clear
9:35 PM 55.8 °F 48.2 °F 76% 29.88 in 7.0 mi WSW 19.6 mph - N/A   Clear
9:55 PM 55.4 °F 48.6 °F 78% 29.88 in 7.0 mi WSW 17.3 mph 25.3 mph N/A   Clear
10:15 PM 55.4 °F 49.1 °F 79% 29.89 in 7.0 mi WSW 11.5 mph 19.6 mph N/A   Clear
10:35 PM 54.9 °F 49.1 °F 81% 29.90 in 7.0 mi WSW 12.7 mph 20.7 mph N/A   Clear
10:55 PM 54.9 °F 49.3 °F 81% 29.90 in 7.0 mi SW 16.1 mph 25.3 mph N/A   Clear
11:15 PM 54.7 °F 49.5 °F 83% 29.91 in 7.0 mi WSW 15.0 mph 21.9 mph N/A   Clear
11:35 PM 54.1 °F 49.6 °F 85% 29.92 in 7.0 mi WSW 11.5 mph 19.6 mph N/A   Clear
11:55 PM 54.1 °F 49.6 °F 85% 29.92 in 7.0 mi WSW 10.4 mph - N/A   Clear